Weather History for Norfolk NAS, VA

Change the Weather History Date:

Saturday, January 26, 2013

  Actual Average Record
Temperature  
Mean Temperature 34 °F -  
Max Temperature 43 °F 45 °F 64 °F (2012)
Min Temperature 26 °F 31 °F 23 °F (2007)
Degree Days  
Heating Degree Days 32    
Moisture  
Dew Point 24 °F    
Average Humidity 73    
Maximum Humidity 81    
Minimum Humidity 53    
Precipitation  
Precipitation 0.00 in - - ()
Sea Level Pressure  
Sea Level Pressure 30.25 in    
Wind  
Wind Speed 5 mph (WSW)    
Max Wind Speed 10 mph    
Max Gust Speed -    
Visibility 6 miles    
Events Snow    
Averages and records for this station are not official NWS values.
T = Trace of Precipitation, MM = Missing Value Source: NWS Daily Summary

Daily Weather History Graph

Daily Weather History Graph

Search for Another Location

Airport:

Trip Planner

Search our weather history database for the weather conditions in past years. The results will help you decide how hot, cold, wet, or windy it might be!

Date:

Astronomy

Jan. 26, 2013 Rise Set
Actual Time 7:11 AM EST 5:24 PM EST
Civil Twilight 6:44 AM EST 5:51 PM EST
Nautical Twilight 6:12 AM EST 6:23 PM EST
Astronomical Twilight 5:42 AM EST 6:53 PM EST
Moon 5:15 PM EST (1/26) 6:29 AM EST (1/26)
Length of Visible Light 11h 07m
Length of Day
10h 12m
Full, 100% of the Moon is Illuminated
Jan 26
Full
Jan 26
Full
Feb 3
Last Quarter
Feb 10
New
Feb 17
First Quarter

Hourly Weather History & Observations

Time (EST) Temp. Windchill Dew Point Humidity Pressure Visibility Wind Dir Wind Speed Gust Speed Precip Events Conditions
12:59 AM 28.0 °F 18.6 °F 21.0 °F 75% 30.12 in 7.0 mi West 10.4 mph - N/A   Mostly Cloudy
1:06 AM 28.4 °F 20.4 °F 21.2 °F 74% 30.11 in 10.0 mi West 8.1 mph - N/A   Mostly Cloudy
1:59 AM 27.0 °F 20.5 °F 21.0 °F 78% 30.12 in 7.0 mi West 5.8 mph - N/A   Mostly Cloudy
2:59 AM 28.0 °F 24.2 °F 21.0 °F 75% 30.12 in 7.0 mi West 3.5 mph - N/A   Mostly Cloudy
3:59 AM 28.0 °F - 21.9 °F 78% 30.13 in 7.0 mi Calm Calm - N/A   Overcast
4:59 AM 28.0 °F - 23.0 °F 81% 30.14 in 7.0 mi Calm Calm - N/A   Overcast
5:50 AM 26.6 °F 18.2 °F 21.2 °F 80% 30.15 in 7.0 mi NNE 8.1 mph - N/A   Scattered Clouds
5:59 AM 28.0 °F 20.0 °F 21.0 °F 75% 30.16 in 7.0 mi NNE 8.1 mph - N/A   Mostly Cloudy
6:09 AM 26.6 °F 20.0 °F 21.2 °F 80% 30.15 in 7.0 mi NNE 5.8 mph - N/A   Partly Cloudy
6:59 AM 27.0 °F - 21.0 °F 78% 30.17 in 7.0 mi Calm Calm - N/A   Partly Cloudy
7:59 AM 26.1 °F 21.9 °F 21.0 °F 81% 30.19 in 4.0 mi WSW 3.5 mph - N/A   Haze
8:12 AM 26.6 °F 22.6 °F 21.2 °F 80% 30.20 in 4.0 mi West 3.5 mph - N/A   Haze
8:59 AM 28.0 °F 21.7 °F 23.0 °F 81% 30.23 in 4.0 mi SW 5.8 mph - N/A   Haze
9:59 AM 30.0 °F 25.2 °F 24.1 °F 79% 30.26 in 6.0 mi West 4.6 mph - N/A   Haze
10:48 AM 30.2 °F 25.4 °F 24.8 °F 80% 30.28 in 3.0 mi WSW 4.6 mph - 0.00 in Snow Light Snow
10:59 AM 30.0 °F - 24.1 °F 79% 30.28 in 2.5 mi Calm Calm - 0.00 in Snow Light Snow
11:32 AM 30.2 °F 26.7 °F 24.8 °F 80% 30.27 in 3.0 mi West 3.5 mph - 0.00 in Snow Light Snow
11:49 AM 30.2 °F 25.4 °F 24.8 °F 80% 30.27 in 5.0 mi WNW 4.6 mph - 0.00 in Snow Light Snow
11:59 AM 32.0 °F 27.5 °F 26.1 °F 79% 30.27 in 6.0 mi West 4.6 mph - 0.00 in Snow Light Snow
12:24 PM 32.0 °F 26.4 °F 24.8 °F 75% 30.26 in 5.0 mi WSW 5.8 mph - 0.00 in   Haze
12:59 PM 32.0 °F 26.4 °F 26.1 °F 79% 30.25 in 6.0 mi SW 5.8 mph - 0.00 in   Haze
1:59 PM 34.0 °F 31.0 °F 26.1 °F 73% 30.24 in 7.0 mi WSW 3.5 mph - N/A   Mostly Cloudy
2:59 PM 35.1 °F - 24.1 °F 64% 30.25 in 7.0 mi Calm Calm - N/A   Overcast
3:59 PM 35.1 °F 30.1 °F 24.1 °F 64% 30.26 in 7.0 mi WSW 5.8 mph - N/A   Mostly Cloudy
4:59 PM 35.1 °F 32.2 °F 24.1 °F 64% 30.27 in 7.0 mi SW 3.5 mph - N/A   Mostly Cloudy
5:59 PM 33.1 °F 30.0 °F 24.1 °F 70% 30.30 in 7.0 mi SW 3.5 mph - N/A   Mostly Cloudy
6:52 PM 33.8 °F 30.8 °F 24.8 °F 70% 30.33 in 7.0 mi SSW 3.5 mph - N/A   Mostly Cloudy
6:59 PM 33.1 °F 30.0 °F 25.0 °F 72% 30.33 in 7.0 mi SSW 3.5 mph - N/A   Mostly Cloudy
7:59 PM 32.0 °F - 24.1 °F 73% 30.35 in 7.0 mi Calm Calm - N/A   Scattered Clouds
8:59 PM 33.1 °F 30.0 °F 24.1 °F 70% 30.37 in 7.0 mi SW 3.5 mph - N/A   Scattered Clouds
9:59 PM 39.0 °F 35.7 °F 26.1 °F 60% 30.41 in 7.0 mi West 4.6 mph - N/A   Overcast
10:43 PM 41.0 °F 39.0 °F 26.6 °F 57% 30.42 in 7.0 mi West 3.5 mph - N/A   Overcast
10:59 PM 41.0 °F 38.0 °F 26.1 °F 55% 30.43 in 7.0 mi West 4.6 mph - N/A   Overcast
11:59 PM 43.0 °F 39.5 °F 27.0 °F 53% 30.45 in 7.0 mi WNW 5.8 mph - N/A   Overcast